Погода в Бресте

Поиск расширенной информации на нашем сайте:

Полезная информация:

Новости сайта



02.01.2020
Опубликован Долгосрочный прогноз погоды по городам России и ближнего зарубежья на январь 2020 года.
Карты: Прогноз на январь и февраль 2020 года, Сравнение прогнозируемой аномалии приземной температуры воздуха на январь 2020 года по разным моделям.




Погода в Бресте - сегодня

Время (UTC), дата Ветер
(°,м/с) 
Видим.   Явления Облачность Т
(°С)
Тd
(°С)
f(%) Тe
(°С)
Pmin
(гПа)
dP
(гПа)
Po
(мм)
O2
(г/м3)
Тmin Tmax R s Состояние
почвы
00 19.01.20 170 (Ю) 3100 м  дымка{морось}  10/10 120 м 
[St]
+0.4 +0.3 99 +1  1026  0.5  756  304           
03 19.01.20 190 (Ю) 3000 м  в посл. час дождь{морось}  10/10 100 м 
[St]
+0 -0.3 98 +1  1026.8  0.8  756  305      0.3     
06 19.01.20 тихо ()   2100 м  дымка{дождь, морось}  10/10 60 м 
[St]
+0.1 +0.1 100 1028  1.2  757  305  +0    0.3     
09 19.01.20 тихо ()   1800 м  дымка  10/10 60 м 
[St]
+0.4 +0.1 98 1030.1  2.1  759  305           
12 19.01.20 тихо ()   0600 м  туман  ?/?  
+1 +1 100 +1  1031.4  1.3  760  305           
15 19.01.20 тихо ()   0700 м  слаб. морось{туман}  ?/?  
+1.5 +1.5 100 +2  1033.6  2.2  761  305      0.0     
18 19.01.20 тихо ()   0200 м  туман{морось}  ?/?  
+1.5 +1.5 100 +2  1036  2.3  763  306    +1.7  0.0     
21 19.01.20 тихо ()   0100 м  туман  ?/?  
+1.7 +1.7 100 +2  1037.9  1.9  764  306           
00 20.01.20 360 (С) 8000 м  дымка{туман}  10/10 300 м 
[St]
+1.4 +1.1 98 +2  1039.7  1.8  766  307           
03 20.01.20 тихо ()   8000 м  дымка  10/10 750 м 
[Sc]
+0.9 +0.6 98 +1  1041.3  1.5  767  308           
06 20.01.20 260 (З) 8000 м  в посл. час дождь  10/10 660 м 
[Sc]
+1.2 +0.7 96 +2  1041.8  0.5  767  308  +0.8    0.0     
09 20.01.20 240 (ЮЗ) 10 км    10/10 800 м 
[Sc]
+2.3 +1.6 95 +2  1042.9  1.2  768  307           
12 20.01.20 280 (З) 20000 м    10/10 660 м 
[Sc]
+3.6 -0.1 77 +2  1043  0.1  768  306           
15 20.01.20 280 (З) 20000 м    10/10 500 м 
[Sc]
+2.5 -0.4 81 +1  1042.6  -0.4  768  307           
18 20.01.20 270 (З) 15000 м    10/10 500 м 
[Sc]
+1.6 -1 83 -1  1042.7  768  308    +3.7       
21 20.01.20 290 (З) 3{10}  15000 м    10/10 480 м 
[Sc]
+1.6 -1 83 1042.3  -0.4  768  308           
00 21.01.20 240 (ЮЗ) 12000 м    8/8 420 м 
[Sc]
+1 -0.8 88 -1  1039.8  -2.5  766  308           
03 21.01.20 250 (З) 15000 м    ясно 
+0.7 -0.6 91 -2  1037.5  -2.3  764  307           
06 21.01.20 250 (З) 5{10}  20000 м    8/0 средняя 
[Ac trans]
+0.9 -1.3 85 -2  1034.9  -2.5  762  306  +0.5         
09 21.01.20 270 (З) 5-11{10}  20000 м    4/0 средняя 
[Ac trans]
+1.3 -1.8 80 -1  1034.4  -0.5  762  306           
12 21.01.20 260 (З) 6-11{12}  20000 м    3/0 верхняя 
[Ci fib]
+4.1 -1.9 65 +1  1031.5  -2.6  760  302           
15 21.01.20 250 (З) 4{12}  30000 м    6/0 верхняя 
[Ci fib]
+5 -2.1 60 +3  1029.6  -1.8  759  300           
18 21.01.20 270 (З) 5-10{14}  30000 м    10/10 700 м 
[Sc]
+4 -1.4 68 +2  1029.5  -0.2  758  301    +5.5       
21 21.01.20 260 (З) 4{11}  12000 м    10/10 300 м 
[St]
+2.7 +1.1 89 +1  1029  -0.6  758  302           
00 22.01.20 260 (З) 5{10}  10 км    10/10 270 м 
[St]
+1.9 +0.4 90 -1  1026.4  -2.6  756  302           
Время (UTC), дата Ветер
(°,м/с) 
Видим.   Явления Облачность Т
(°С)
Тd
(°С)
f(%) Тe
(°С)
Pmin
(гПа)
dP
(гПа)
Po
(мм)
O2
(г/м3)
Тmin Tmax R s Состояние
почвы

Для получения пояснительной информации подведите курсор к названию столбца.

ПОГОДА в Бресте - архив

Всё, что Вы хотите узнать о погоде в Бресте - удобно и подробно!

Выберите нужную дату (начиная с 1 января 2019* года) и нажмите кнопку "Найти".
Будут отображены архивные сводки погоды по пункту Брест, начиная с указанной даты.


Отображать данные в формате CSV (для использования в таблицах Excel)


Внимание! Наш архив погоды предназначен исключительно для личного некоммерческого использования в познавательных целях. Если Вам необходимы официальные справки о состоянии погоды (для производственных, юридических, коммерческих и т.п. целей), обращайтесь в органы Росгидромета.

*Примечание: данная дата относится к архиву по метеостанциям СССР (Россия, СНГ, Балтия).
Архив по метеостанциям Зарубежной Европы и Азии (кроме Китая) хранится 10 дней, по другим регионам земного шара (Китай, Африка, Америка, Австралия, Океания) - 1 день.

Брест - район местоположения метеостанции


Название, широта, долгота, высота метеостанции:
Брест 52.1°ш. 23.7°д. 146 м над ур. моря [Беларусь]

Дополнительная информация

В oтличие oт бoльшинства пoгoдных сайтoв мы публикуем пoдрoбную метеoинфoрмацию в детальнoм прoфессиoнальнoм фoрмате.

Характеристики температуры и влажнoсти вoздуха измеряются на высoте 2 м в тени вдали oт зданий и деревьев.
Скoрoсть ветра измеряется на высoте 10 м (на урoвне рoста челoвека скoрoсть ветра ниже в 1.5-2 раза). Если метеoстанция нахoдится в гoрoде или в лесу, тo скoрoсть ветра занижена на 2-4 м/с пo сравнению с oткрытым местoм. Скoрoсть ветра над акватoриями крупных рек и oзёр, а также на вершинах хoлмoв на 2-5 м/с выше, чем в oбычных услoвиях.
Атмoсфернoе давление в разных тoчках местнoсти мoжет значительнo oтличаться oт давления на метеoстанции, в зависимoсти oт услoвий рельефа (при пoдъёме на 10 м давление пoнижается примернo на 1 мм рт.ст.).